When you browse on this site, cookies collect data to enhance your experience and personalize the content and advertising you see.
Visit our Privacy Policy to learn more. By continuing to use the site, you agree to this use of cookies and data.
  • en Suisse
  • Liste des pays
  • À 7 jours
  • Température de l'eau
  • Carte satellitaire
  • Carte météo
  • Widgets météo
  • user-avatar
    Se connecter

    Météo par heure à Plavni

    Ce jour, 19 Février, Mardi

    Heure Température Précipitation Vent Pression Humidité
    00:00 -4°C° 0 mm 2 m/s 761 mmHg 92%
    01:00 -3°C° 0 mm 1 m/s 761 mmHg 92%
    02:00 -6°C° 0 mm 1 m/s 761 mmHg 91%
    03:00 -6°C° 0 mm 1 m/s 761 mmHg 91%
    04:00 -6°C° 0 mm 0 m/s 761 mmHg 91%
    05:00 -7°C° 0 mm 0 m/s 761 mmHg 91%
    06:00 -6°C° 0 mm 0 m/s 762 mmHg 91%
    07:00 -6°C° 0 mm 0 m/s 762 mmHg 91%
    08:00 -5°C° 0 mm 0 m/s 762 mmHg 91%
    09:00 -3°C° 0 mm 1 m/s 762 mmHg 90%
    10:00 -1°C° 0 mm 1 m/s 762 mmHg 89%
    11:00 -2°C° 0 mm 2 m/s 762 mmHg 88%
    12:00 -2°C° 0 mm 2 m/s 762 mmHg 89%
    13:00 -1°C° 0 mm 2 m/s 762 mmHg 90%
    14:00 -1°C° 0 mm 2 m/s 761 mmHg 91%
    15:00 -1°C° 0 mm 2 m/s 761 mmHg 88%
    16:00 -2°C° 0 mm 2 m/s 760 mmHg 85%
    17:00 -2°C° 0 mm 2 m/s 760 mmHg 83%
    18:00 -4°C° 0 mm 3 m/s 760 mmHg 81%
    19:00 -4°C° 0 mm 3 m/s 759 mmHg 80%
    20:00 -4°C° 0 mm 3 m/s 759 mmHg 78%
    21:00 -4°C° 0 mm 3 m/s 759 mmHg 78%
    22:00 -5°C° 0 mm 4 m/s 758 mmHg 78%
    23:00 -5°C° 0 mm 4 m/s 758 mmHg 78%

    Demain, 20 Février, Mercredi

    Heure Température Précipitation Vent Pression Humidité
    00:00 -5°C° 0 mm 4 m/s 758 mmHg 78%
    01:00 -4°C° 0 mm 4 m/s 757 mmHg 78%
    02:00 -4°C° 0 mm 4 m/s 757 mmHg 79%
    03:00 -4°C° 0 mm 4 m/s 756 mmHg 80%
    04:00 -4°C° 0 mm 4 m/s 756 mmHg 80%
    05:00 -5°C° 0 mm 5 m/s 755 mmHg 81%
    06:00 -5°C° 0 mm 5 m/s 755 mmHg 82%
    07:00 -4°C° 0 mm 5 m/s 754 mmHg 83%
    08:00 -2°C° 0 mm 5 m/s 754 mmHg 85%
    09:00 -1°C° 0 mm 5 m/s 754 mmHg 89%
    10:00 -1°C° 0 mm 5 m/s 753 mmHg 93%
    11:00 0°C° 0 mm 5 m/s 753 mmHg 97%
    12:00 0°C° 0 mm 5 m/s 753 mmHg 97%
    13:00 +1°C° 0 mm 4 m/s 752 mmHg 97%
    14:00 +1°C° 0 mm 4 m/s 752 mmHg 98%
    15:00 +1°C° 0.1 mm 4 m/s 752 mmHg 97%
    16:00 0°C° 0.1 mm 4 m/s 752 mmHg 97%
    17:00 +1°C° 0.1 mm 3 m/s 751 mmHg 97%
    18:00 +1°C° 0.2 mm 3 m/s 752 mmHg 97%
    19:00 0°C° 0.2 mm 3 m/s 752 mmHg 97%
    20:00 0°C° 0.2 mm 3 m/s 752 mmHg 98%
    21:00 0°C° 0 mm 3 m/s 752 mmHg 97%
    22:00 0°C° 0 mm 3 m/s 752 mmHg 96%
    23:00 0°C° 0 mm 3 m/s 752 mmHg 95%

    Après-demain, 21 Février, Jeudi

    Heure Température Précipitation Vent Pression Humidité
    00:00 -1°C° 0 mm 4 m/s 752 mmHg 94%
    01:00 -2°C° 0 mm 4 m/s 752 mmHg 93%
    02:00 -2°C° 0 mm 4 m/s 752 mmHg 91%
    03:00 -2°C° 0 mm 5 m/s 751 mmHg 91%
    04:00 -2°C° 0 mm 5 m/s 751 mmHg 90%
    05:00 -2°C° 0 mm 6 m/s 751 mmHg 90%
    06:00 -2°C° 0.1 mm 6 m/s 751 mmHg 88%
    07:00 -2°C° 0.1 mm 6 m/s 751 mmHg 87%
    08:00 -2°C° 0.1 mm 6 m/s 751 mmHg 85%
    09:00 -2°C° 0 mm 7 m/s 751 mmHg 81%
    10:00 -3°C° 0 mm 7 m/s 751 mmHg 77%
    11:00 -3°C° 0 mm 7 m/s 752 mmHg 72%
    12:00 -3°C° 0.1 mm 7 m/s 752 mmHg 72%
    13:00 -4°C° 0.1 mm 7 m/s 752 mmHg 72%
    14:00 -4°C° 0.1 mm 7 m/s 752 mmHg 72%
    15:00 -4°C° 0.1 mm 7 m/s 752 mmHg 73%
    16:00 -4°C° 0.1 mm 6 m/s 752 mmHg 74%
    17:00 -5°C° 0.1 mm 6 m/s 752 mmHg 75%
    18:00 -5°C° 0 mm 5 m/s 753 mmHg 76%
    19:00 -5°C° 0 mm 5 m/s 753 mmHg 77%
    20:00 -5°C° 0 mm 4 m/s 753 mmHg 78%
    21:00 -5°C° 0 mm 4 m/s 754 mmHg 78%
    22:00 -7°C° 0 mm 4 m/s 754 mmHg 79%
    23:00 -6°C° 0 mm 3 m/s 754 mmHg 79%

    22 Février, Vendredi

    Heure Température Précipitation Vent Pression Humidité
    00:00 -8°C° 0 mm 4 m/s 754 mmHg 80%
    01:00 -8°C° 0 mm 4 m/s 754 mmHg 81%
    02:00 -8°C° 0 mm 4 m/s 754 mmHg 81%
    03:00 -8°C° 0 mm 4 m/s 754 mmHg 82%
    04:00 -8°C° 0 mm 4 m/s 754 mmHg 83%
    05:00 -9°C° 0 mm 4 m/s 754 mmHg 83%
    06:00 -8°C° 0 mm 4 m/s 755 mmHg 83%
    07:00 -8°C° 0 mm 5 m/s 755 mmHg 83%
    08:00 -8°C° 0 mm 5 m/s 755 mmHg 83%
    09:00 -8°C° 0 mm 5 m/s 756 mmHg 81%
    10:00 -10°C° 0 mm 6 m/s 756 mmHg 79%
    11:00 -10°C° 0 mm 6 m/s 756 mmHg 77%
    12:00 -10°C° 0 mm 6 m/s 756 mmHg 75%
    13:00 -10°C° 0 mm 6 m/s 756 mmHg 73%
    14:00 -11°C° 0 mm 7 m/s 757 mmHg 71%
    15:00 -10°C° 0 mm 6 m/s 757 mmHg 71%
    16:00 -11°C° 0 mm 6 m/s 758 mmHg 71%
    17:00 -11°C° 0 mm 6 m/s 758 mmHg 71%
    18:00 -12°C° 0 mm 6 m/s 759 mmHg 72%
    19:00 -12°C° 0 mm 6 m/s 759 mmHg 74%
    20:00 -13°C° 0 mm 5 m/s 760 mmHg 75%
    21:00 -13°C° 0 mm 5 m/s 760 mmHg 76%
    22:00 -12°C° 0 mm 4 m/s 760 mmHg 78%
    23:00 -12°C° 0 mm 4 m/s 761 mmHg 79%

    23 Février, Samedi

    Heure Température Précipitation Vent Pression Humidité
    00:00 -14°C° 0 mm 4 m/s 761 mmHg 80%
    01:00 -14°C° 0 mm 4 m/s 761 mmHg 82%
    02:00 -14°C° 0 mm 4 m/s 761 mmHg 83%
    03:00 -14°C° 0 mm 4 m/s 761 mmHg 84%
    04:00 -14°C° 0 mm 4 m/s 761 mmHg 85%
    05:00 -14°C° 0 mm 4 m/s 761 mmHg 86%
    06:00 -14°C° 0 mm 4 m/s 762 mmHg 85%
    07:00 -14°C° 0 mm 5 m/s 762 mmHg 84%
    08:00 -15°C° 0 mm 5 m/s 762 mmHg 83%
    09:00 -14°C° 0 mm 5 m/s 763 mmHg 80%
    10:00 -13°C° 0 mm 5 m/s 763 mmHg 77%
    11:00 -12°C° 0 mm 5 m/s 763 mmHg 75%
    12:00 -12°C° 0 mm 5 m/s 763 mmHg 73%
    13:00 -12°C° 0 mm 5 m/s 763 mmHg 72%
    14:00 -11°C° 0 mm 5 m/s 763 mmHg 71%
    15:00 -11°C° 0.1 mm 5 m/s 763 mmHg 72%
    16:00 -12°C° 0.1 mm 5 m/s 763 mmHg 74%
    17:00 -12°C° 0.1 mm 5 m/s 763 mmHg 76%
    18:00 -11°C° 0 mm 4 m/s 763 mmHg 78%
    19:00 -11°C° 0 mm 4 m/s 764 mmHg 80%
    20:00 -11°C° 0 mm 4 m/s 764 mmHg 82%
    21:00 -12°C° 0 mm 4 m/s 764 mmHg 82%
    22:00 -12°C° 0 mm 4 m/s 764 mmHg 83%
    23:00 -13°C° 0 mm 3 m/s 764 mmHg 84%

    24 Février, Dimanche

    Heure Température Précipitation Vent Pression Humidité
    00:00 -13°C° 0 mm 3 m/s 764 mmHg 84%
    01:00 -14°C° 0 mm 3 m/s 764 mmHg 84%
    02:00 -14°C° 0 mm 3 m/s 764 mmHg 85%
    03:00 -15°C° 0 mm 3 m/s 764 mmHg 85%
    04:00 -15°C° 0 mm 3 m/s 765 mmHg 85%
    05:00 -15°C° 0 mm 3 m/s 765 mmHg 85%
    06:00 -16°C° 0 mm 4 m/s 765 mmHg 85%
    07:00 -16°C° 0 mm 4 m/s 765 mmHg 85%
    08:00 -16°C° 0 mm 4 m/s 766 mmHg 85%
    09:00 -15°C° 0 mm 4 m/s 766 mmHg 83%
    10:00 -14°C° 0 mm 4 m/s 766 mmHg 80%
    11:00 -12°C° 0 mm 4 m/s 766 mmHg 78%
    12:00 -12°C° 0 mm 4 m/s 766 mmHg 78%
    13:00 -11°C° 0 mm 4 m/s 766 mmHg 77%
    14:00 -12°C° 0 mm 5 m/s 766 mmHg 77%
    15:00 -12°C° 0 mm 5 m/s 766 mmHg 78%
    16:00 -12°C° 0 mm 5 m/s 766 mmHg 78%
    17:00 -11°C° 0 mm 4 m/s 766 mmHg 79%
    18:00 -11°C° 0 mm 4 m/s 766 mmHg 80%
    19:00 -11°C° 0 mm 4 m/s 767 mmHg 80%
    20:00 -11°C° 0 mm 4 m/s 767 mmHg 81%
    21:00 -12°C° 0 mm 4 m/s 767 mmHg 83%
    22:00 -12°C° 0 mm 4 m/s 767 mmHg 85%
    23:00 -13°C° 0 mm 3 m/s 767 mmHg 87%
    Voir plus